FENGYUN 1C DEB

Satellite information

Favourite Embed

Satellite Type and Status

DEBRISIN ORBIT

Key statistics

Satellite FENGYUN 1C DEB at a glance.

Uptime

9495

Days in orbit

Revolutions

≈ 14.5

Per day

Orbit

SSO

Sun Synchronous Orbit

Inclination

99.3

Latest

Satellite identification and parameters

Extended collection of information and parameters for FENGYUN 1C DEB.

Object identification

Identified? True

Debris? True

Object name: FENGYUN 1C DEB

International designator: 1999-025ZE

Object number (NORAD): 30293

Object ID (CCSDS): 30293

Country: PEOPLES REPUBLIC OF CHINA (PRC)

Current information (Y/N): Y

RCS size: SMALL

Orbital parameters

Period: 99.491 minutes

Inclination: 99.2538 deg

SMA: 7112.38 km

Apoapsis: 790.341 km

Periapsis: 678.149 km

RAAN: 297.6287 deg

Eccentricy: 0.0078871

Argument of periapsis: 46.1661 deg

Mean anomaly: 344.4634 deg

Mean motion: 14.47372601 rev/day

Mean motion (dot): 0.00003433 rev/day2

B* drag term: 0.000915 1/REarth

Two-line elements (TLE)

Creation date: May 8, 2025, 3:01 a.m.

Reference frame: TEME

Reference center: EARTH

Epoch: May 7, 2025, 10:30 a.m. UTC

TLE line 0: 0 FENGYUN 1C DEB

TLE line 1: 1 30293U 99025ZE 25127.43753728 .00003433 00000-0 91500-3 0 9999

TLE line 2: 2 30293 99.2538 297.6287 0078871 46.1661 344.4634 14.47372601958039

Live tracking on map

Real-time ground track for satellite FENGYUN 1C DEB.

In-orbit conjunctions

A list of the most updated potential collisions computed for object FENGYUN 1C DEB.

Target Orbit TCA Probability of collision Miss distance Type
IDEFIX/ARIANE 42P SSO 2025-02-21 11:27:45 0.000415469 121.0 (m) PAYLOAD
FENGYUN 1C DEB SSO 2024-11-10 08:30:52 0.000119934 640.0 (m) DEBRIS
ORBCOMM FM 26 LEO 2024-10-31 11:32:11 0.000144394 112.0 (m) PAYLOAD
FASAT B SSO 2024-09-25 18:07:45 0.0004729255 690.0 (m) PAYLOAD

Associated space launch

Chinese polar orbiting meteorological satellite

FENGYUN 1C DEB was lifted into orbit during the mission ‘Long March 4B | Feng Yun 1C’, on board a Long March 4B space rocket.

The launch took place on May 10, 1999, 1:33 a.m. from Launch Complex 7.

For more information about the launch, click the button.

Launch to space Long March 4B | Feng Yun 1C
Long March 4B | Feng Yun 1C

Agency: N/A

Status: Launch Successful

Launch date: May 10, 1999, 1:33 a.m. UTC

Rocket: Long March 4B

Launch pad: Launch Complex 7

Location: Taiyuan Satellite Launch Center, People's Republic of China

...

Latest news about this satellite

There are no fresh news available about this satellite. Check back as we update our databases every day.


Newsletter sign-up

Weekly statistics, charts and insights to help you stay on top of the space industry.